Location: Holcomb Observatory
(44.4922°N, 73.1654°W)
Time: 03:09:12
(UTC-04:00)

Daily predictions for brighter satellites

Satellite Brightness Start Highest point End
(mag) Time Altitude Azimuth Time Altitude Azimuth Time Altitude Azimuth
CZ-4C R/B 4.4 01:44:07 10° NNW 01:54:49 16° E 01:56:34 10° E
ATLAS 2AS CENTAUR R/B 4.1 02:12:52 38° ENE 02:12:52 38° ENE 02:17:57 10° NE
Cosmos 2219 Rocket 4.2 02:57:20 10° N 03:01:59 25° NE 03:06:37 10° ESE
CZ-2D R/B 3.6 03:06:06 10° NNE 03:09:27 32° ENE 03:09:27 32° ENE
SL-16 R/B 3.2 03:17:52 48° N 03:17:52 48° N 03:22:20 10° N
ARIANE 5 R/B 3.9 03:17:08 10° NNE 03:20:07 34° NNE 03:20:07 34° NNE
Lacrosse 5 rocket 3.7 03:25:43 24° ENE 03:25:43 24° ENE 03:27:36 10° ENE
Cosmos 2333 Rocket 3.8 03:29:16 10° N 03:34:27 33° NE 03:39:33 10° ESE
CZ-4C R/B 2.9 03:32:19 10° NW 03:40:27 69° SSE 03:47:15 10° SSE
Cosmos 1821 Rocket 4.3 03:33:34 10° N 03:39:56 67° E 03:41:04 56° SE
Lacrosse 5 4.2 03:41:13 15° SE 03:41:42 15° ESE 03:44:34 10° E
Resurs 1-4 Rocket 2.7 03:38:51 10° NNE 03:42:57 54° NNE 03:42:57 54° NNE
Cosmos 1934 Rocket 4.4 03:39:39 10° N 03:45:55 61° E 03:48:43 33° SE
Meteor 1-12 Rocket 4.3 03:45:59 10° N 03:51:58 77° ENE 03:52:15 75° ESE
Meteor 2-21 Rocket 4.4 03:54:33 10° NNW 03:59:51 67° NW 03:59:51 67° NW
ATLAS 2AS CENTAUR R/B 3.4 04:00:18 46° WNW 04:01:24 49° NW 04:09:16 10° NNE
Cosmos 2237 Rocket 3.2 03:59:22 10° NNW 04:04:47 44° ENE 04:10:08 10° SE
ARGOS Delta rocket 4.3 04:05:42 10° N 04:09:31 56° NNW 04:09:31 56° NNW
Gbstr 26 Del rocket 4.2 04:08:38 47° WNW 04:11:06 83° SSW 04:19:12 10° SE
MOZ.5/SAFIR/RUBIN 5/SL-8 4.0 04:10:38 59° ESE 04:11:19 69° ENE 04:16:04 10° N
CZ-2C R/B 4.4 04:08:41 18° SE 04:11:53 53° ENE 04:16:23 10° N
IRS-1D 4.2 04:06:52 10° N 04:10:57 44° NNW 04:10:57 44° NNW
Cosmos 2239 Rocket 4.4 04:08:14 10° NNW 04:14:24 66° W 04:14:32 66° WSW
Okean O Rocket 2.3 04:11:37 10° NNE 04:15:55 50° E 04:16:41 44° SE
Cosmos 968 Rocket 3.4 04:16:28 74° NNW 04:16:28 74° NNW 04:21:21 10° NNE
Meteor 1-18 Rocket 4.1 04:16:35 71° WSW 04:17:00 75° W 04:22:50 10° N
Cosmos 2219 3.2 04:18:02 63° WNW 04:18:02 63° WNW 04:23:35 10° NNE
Cosmos 1980 4.2 04:12:23 10° NNW 04:18:01 60° ENE 04:23:39 10° SE
ATLAS 5 CENTAUR R/B 3.0 04:12:54 10° NNW 04:18:45 56° NE 04:25:02 10° SE
MOS 1-B 4.2 04:14:33 10° NNE 04:20:22 80° WNW 04:21:22 62° SW
UNKNOWN OBJECT B 4.3 04:16:35 10° N 04:18:38 29° N 04:18:38 29° N
Tiangong 1 4.0 04:22:44 12° ESE 04:22:44 12° ESE 04:23:14 10° ESE
Cosmos 923 Rocket 4.4 04:16:04 10° NNW 04:21:25 66° ENE 04:26:43 10° SSE
SL-16 R/B 4.1 04:17:37 10° N 04:22:37 30° NE 04:27:34 10° ESE
Okean 1 4.3 04:26:39 37° N 04:26:39 37° N 04:29:15 10° N
NOSS 3-2 (A) 3.9 04:22:08 10° NW 04:29:37 89° NE 04:37:41 10° SE
Cosmos 2344 3.6 04:26:23 40° SW 04:29:37 87° NW 04:38:36 10° NE
Cosmos 1461 3.6 04:31:20 44° NNW 04:31:20 44° NNW 04:34:57 10° NNE
USA 238 DEB 4.1 04:35:03 40° SW 04:35:03 40° SW 04:40:32 10° S
USA 238 4.0 04:34:55 42° SW 04:34:55 42° SW 04:40:38 10° S
Cosmos 1743 3.1 04:32:45 10° N 04:36:34 62° E 04:39:18 18° SSE
BREEZE-M DEB (TANK) 4.0 04:36:06 36° S 04:37:02 41° SSE 04:39:48 10° E
Cosmos 2227 Rocket 2.7 04:35:19 22° S 04:38:51 58° ESE 04:44:24 10° NNE
PSLV R/B 3.7 04:37:06 10° N 04:41:12 81° WNW 04:41:29 75° SW
Okean 1-7 Rocket 3.4 04:41:51 57° SSW 04:42:43 84° W 04:47:10 10° N
Cosmos 773 Rocket 3.9 04:39:06 10° NNW 04:44:17 60° WSW 04:49:22 10° S
ADEOS II 3.4 04:40:14 10° NNE 04:45:11 40° E 04:50:06 10° SSE
CZ-4B R/B 3.2 04:41:01 10° NNE 04:45:22 76° ESE 04:47:43 28° S
Cosmos 2219 Rocket 2.1 04:40:45 10° NNW 04:46:21 60° WSW 04:51:55 10° S
Cosmos 2297 Rocket 3.0 04:43:32 12° S 04:48:38 50° ESE 04:54:06 10° NE
CZ-2D R/B 3.1 04:46:32 10° N 04:50:46 28° WNW 04:50:46 28° WNW
Meteor 2-8 Rocket 4.3 04:48:13 23° SSW 04:52:09 71° W 04:58:18 10° N
CZ-4B DEB 4.1 04:51:15 10° NNE 04:56:46 89° ESE 05:01:53 12° SSW
Cosmos 1727 Rocket 3.9 04:51:31 13° SSW 04:57:08 77° W 05:03:30 10° N
Cosmos 1777 Rocket 4.1 04:57:51 37° SW 04:59:40 57° WNW 05:04:52 10° NNE
SL-16 R/B 4.2 05:02:58 15° WNW 05:02:58 15° WNW 05:04:42 10° NW
ARIANE 5 R/B 4.1 04:57:22 10° NNW 05:00:27 19° NW 05:00:27 19° NW
Okean 2 4.4 04:58:36 10° SSE 05:02:36 48° E 05:06:36 10° NNE
Lacrosse 5 rocket 2.5 05:01:27 30° WNW 05:02:38 34° NNW 05:06:44 10° NE
PAYLOAD B 4.1 04:57:29 10° N 05:02:59 73° WNW 05:07:22 16° SSW
PSLV R/B 3.9 04:59:10 10° NNE 05:03:31 64° E 05:07:47 10° S
Cosmos 2173 Rocket 4.3 04:59:36 10° N 05:05:42 69° E 05:11:47 10° SSE
NOSS 3-2 (C) 3.9 04:58:44 10° NW 05:06:12 71° WSW 05:14:13 10° SSE
Cosmos 220 Rocket 3.9 05:04:15 21° SSW 05:07:01 81° ESE 05:11:15 10° NNE
CENTAUR R/B 3.8 05:04:08 10° NNW 05:11:37 53° NE 05:19:40 10° ESE
Cosmos 2112 Rocket 3.9 05:09:37 10° NNW 05:14:55 67° WSW 05:20:07 10° S
Okean-O 2.9 05:10:59 10° NNE 05:15:26 69° ESE 05:19:51 10° S
Cosmos 1459 Rocket 4.1 05:10:07 10° N 05:16:33 85° E 05:22:53 10° S
Cosmos 2082 3.6 05:12:43 16° SSW 05:17:13 77° WNW 05:22:52 10° NNE
Cosmos 2333 Rocket 2.5 05:13:27 10° NW 05:18:49 42° WSW 05:24:05 10° S
ADEOS Rocket 3.3 05:11:29 10° NNE 05:18:53 81° WNW 05:25:30 10° SSW
OE (NEXTSAT) 4.4 05:17:47 32° WNW 05:19:21 82° NNE 05:23:00 10° E
Cosmos 1680 Rocket 3.6 05:15:05 10° NNW 05:20:12 51° WSW 05:25:16 10° S
Cosmos 2228 3.7 05:17:22 10° N 05:21:44 58° E 05:26:03 10° SSE
Meteor 1-19 Rocket 4.2 05:17:09 10° SSW 05:22:46 62° WNW 05:28:20 10° N
Resurs 1-4 Rocket 3.7 05:20:15 10° NNW 05:23:22 16° WNW 05:24:02 16° WNW
Lacrosse 5 1.9 05:20:27 20° SW 05:23:58 85° SE 05:29:04 10° NE
EXPRESS MD2 3.6 05:22:10 22° NW 05:24:09 67° NNE 05:29:52 10° ESE
CZ-4C R/B 4.0 05:26:04 19° W 05:27:21 20° WSW 05:32:38 10° SSW
Cosmos 2058 Rocket 2.9 05:24:06 10° N 05:28:29 85° W 05:32:50 10° S
NOSS 3-4 (A) 3.6 05:26:20 17° SW 05:31:20 65° NW 05:37:55 10° NNE
NOSS 3-4 (C) 3.6 05:26:24 17° SW 05:31:26 66° NW 05:38:01 10° NE
OTV 4 2.3 05:33:36 15° SSW 05:33:49 15° SSW 05:35:30 10° SSE
Cosmos 2298 Rocket 4.3 05:31:37 10° SSW 05:36:54 74° ESE 05:42:13 10° NNE
BREEZE-M DEB (TANK) 3.8 05:25:37 10° WNW 05:41:37 86° SSW 05:45:40 10° ESE
CZ-4B R/B 3.8 05:37:41 10° N 05:42:33 36° WNW 05:47:29 10° SW
Thor Agena Rocket 4.1 05:38:10 10° SSW 05:43:03 38° W 05:47:59 10° NNW
Aureole 2 Rocket 2.7 05:40:19 10° NNW 05:43:57 71° ENE 05:47:12 10° SSE
Meteor 1-23 Rocket 4.2 05:39:19 10° SSW 05:44:52 61° WNW 05:50:31 10° N
COSMO-SKYMED 1 3.5 05:41:17 10° SSE 05:45:30 52° ENE 05:49:44 10° N
Cosmos 2084 4.5 05:44:02 16° W 05:46:03 25° NW 05:49:15 10° NNE
Meteor 2-4 Rocket 3.9 05:40:27 10° SSW 05:46:08 55° WNW 05:51:58 10° N
Cosmos 2237 Rocket 2.9 05:43:50 10° NW 05:48:37 29° WSW 05:53:23 10° SSW
Cosmos 1666 3.3 05:45:54 10° NNW 05:49:27 35° W 05:52:58 10° SSW
Cosmos 292 Rocket 4.0 05:45:34 10° NNW 05:50:15 48° WSW 05:54:55 10° S
RESURS DK-1 2.6 05:46:43 10° SW 05:50:39 48° WNW 05:54:42 10° NNE
Okean O Rocket 3.2 05:48:56 10° NNW 05:51:55 18° WNW 05:54:08 13° W
Cosmos 2150 Rocket 4.0 05:47:02 10° SSW 05:52:11 87° ESE 05:57:22 10° NNE
Cosmos 2098 Rocket 2.7 05:49:39 10° NNW 05:53:14 75° W 05:57:44 10° S
Cosmos 2061 Rocket 4.2 05:50:34 10° NNW 05:56:37 51° W 06:02:43 10° SSW
Tiangong 1 1.5 05:54:38 13° WSW 05:57:07 50° S 06:00:06 10° E
Meteor 2-15 4.4 05:52:54 10° SSW 05:58:58 78° W 06:05:03 10° N
ATLAS 5 CENTAUR R/B 3.1 05:58:00 10° NW 06:03:19 32° WSW 06:08:56 10° S
Cosmos 1025 Rocket 4.3 05:59:56 10° WSW 06:03:20 22° WNW 06:06:44 10° NNW
Cosmos 1802 Rocket 4.2 05:57:55 10° NNW 06:03:50 49° W 06:09:42 10° SSW
BREEZE M DEB (TANK) 3.8 06:01:29 10° W 06:05:01 57° N 06:17:06 10° ENE
Cosmos 2100 Rocket 4.5 06:00:27 10° NNW 06:06:07 38° W 06:11:49 10° SSW
CZ-4B R/B 3.8 06:02:34 10° N 06:06:33 59° WNW 06:10:19 10° SSW
Ariane Rocket 3.6 06:01:31 10° NNE 06:06:37 64° ESE 06:11:40 10° S
SL-16 R/B 2.5 06:01:30 10° NW 06:06:56 47° WSW 06:12:20 10° S
Cosmos 1346 Rocket 3.8 06:04:14 10° SW 06:07:37 27° WNW 06:11:06 10° NNW
Cosmos 1626 Rocket 3.5 06:03:18 10° S 06:07:42 85° W 06:12:06 10° N
Cosmos 990 Rocket 4.3 06:06:11 10° SSW 06:11:25 75° ESE 06:16:41 10° NNE
USA 129 3.4 06:11:28 10° SW 06:12:43 15° W 06:13:56 10° WNW
Meteor 2-15 Rocket 4.4 06:11:34 10° SSW 06:17:36 66° W 06:23:39 10° N
